Tracking 30116 objects as of 10-Feb-2025
HD Live streaming from Space Station
objects crossing your sky now

STARLINK-11415

Track STARLINK-11415 now!
10-day predictions
STARLINK-11415 is classified as:


NORAD ID: 62592
Int'l Code: 2025-008F
Perigee: 342.3 km
Apogee: 344.8 km
Inclination: 43.0 °
Period: 91.3 minutes
Semi major axis: 6714 km
RCS: Unknown
Launch date: January 13, 2025
Source: United States (US)
Launch site: AIR FORCE EASTERN TEST RANGE (AFETR)
Your satellite tracking list
Your tracking list is empty




NASA's NSSDC Master Catalog

Two Line Element Set (TLE):
1 62592U 25008F   25041.49641336  .00004203  00000-0  26970-4 0  9994
2 62592  43.0008 331.8720 0001912 272.5115  87.5536 15.77889622  5522
Source of the keplerian elements: AFSPC